| time (UTC) | temp F | wind direction | speed MPH | gust MPH | rain 1hr in | rain 24hr in | rain mn in | humidity % | barometer mb |
| 20260505052325 | 48 | 291 | 4.0 | 4.0 | 0.00 | 0.00 | 0.00 | 59 | |
| 20260505051822 | 48 | 11 | 2.0 | 4.0 | 0.00 | 0.00 | 0.00 | 54 | |
| 20260505051320 | 49 | 87 | 0.0 | 2.0 | 0.00 | 0.00 | 0.00 | 50 | |
| 20260505050818 | 49 | 71 | 1.0 | 4.0 | 0.00 | 0.00 | 0.00 | 49 | |
| 20260505050316 | 49 | 84 | 2.0 | 3.0 | 0.00 | 0.00 | 0.00 | 49 | |
| 20260505041746 | 47 | 41 | 2.0 | 2.0 | 0.00 | 0.00 | 0.00 | 60 | |
| 20260505041243 | 47 | 90 | 1.0 | 3.0 | 0.00 | 0.00 | 0.00 | 61 | |
| 20260505040740 | 47 | 282 | 2.0 | 3.0 | 0.00 | 0.00 | 0.00 | 61 | |
| 20260505040238 | 47 | 100 | 4.0 | 7.0 | 0.00 | 0.00 | 0.00 | 61 | |
| 20260505035735 | 48 | 346 | 4.0 | 6.0 | 0.00 | 0.00 | 0.00 | 61 | |
| 20260505035230 | 48 | 31 | 2.0 | 8.0 | 0.00 | 0.00 | 0.00 | 59 | |
| 20260505034727 | 48 | 307 | 3.0 | 4.0 | 0.00 | 0.00 | 0.00 | 60 | |
| 20260505034224 | 48 | 66 | 1.0 | 3.0 | 0.00 | 0.00 | 0.00 | 61 | |
| 20260505033721 | 47 | 12 | 4.0 | 6.0 | 0.00 | 0.00 | 0.00 | 61 | |
| 20260505033219 | 48 | 281 | 6.0 | 8.0 | 0.00 | 0.00 | 0.00 | 64 | |
| 20260505032717 | 48 | 271 | 5.0 | 7.0 | 0.00 | 0.00 | 0.00 | 62 | |
| 20260505032212 | 47 | 189 | 2.0 | 2.0 | 0.00 | 0.00 | 0.00 | 63 | |
| 20260505031710 | 47 | 36 | 2.0 | 2.0 | 0.00 | 0.00 | 0.00 | 64 | |
| 20260505031206 | 47 | 94 | 2.0 | 2.0 | 0.00 | 0.00 | 0.00 | 64 | |
| 20260505030703 | 47 | 45 | 3.0 | 4.0 | 0.00 | 0.00 | 0.00 | 64 | |
| 20260505030159 | 48 | 279 | 3.0 | 4.0 | 0.00 | 0.00 | 0.00 | 60 | |
| 20260505025655 | 49 | 210 | 1.0 | 3.0 | 0.00 | 0.00 | 0.00 | 60 | |
| 20260505025153 | 48 | 67 | 1.0 | 2.0 | 0.00 | 0.00 | 0.00 | 59 | |
| 20260505024651 | 48 | 240 | 2.0 | 6.0 | 0.00 | 0.00 | 0.00 | 62 | |
| 20260505024147 | 48 | 317 | 4.0 | 4.0 | 0.00 | 0.00 | 0.00 | 60 | |
| 20260505023645 | 48 | 13 | 2.0 | 8.0 | 0.00 | 0.00 | 0.00 | 61 | |
| 20260505023143 | 48 | 33 | 3.0 | 6.0 | 0.00 | 0.00 | 0.00 | 62 | |
| 20260505022640 | 48 | 354 | 4.0 | 6.0 | 0.00 | 0.00 | 0.00 | 62 | |
| 20260505022137 | 48 | 77 | 2.0 | 3.0 | 0.00 | 0.00 | 0.00 | 61 | |
| 20260505021633 | 49 | 67 | 2.0 | 3.0 | 0.00 | 0.00 | 0.00 | 60 | |
| 20260505021130 | 49 | 30 | 2.0 | 4.0 | 0.00 | 0.00 | 0.00 | 58 | |
| 20260505020626 | 49 | 88 | 0.0 | 1.0 | 0.00 | 0.00 | 0.00 | 56 | |
| 20260505020122 | 49 | 305 | 2.0 | 2.0 | 0.00 | 0.00 | 0.00 | 56 | |
| 20260505015619 | 49 | 81 | 1.0 | 3.0 | 0.00 | 0.00 | 0.00 | 58 | |
| 20260505015116 | 50 | 75 | 1.0 | 2.0 | 0.00 | 0.00 | 0.00 | 56 | |
| 20260505014613 | 50 | 79 | 1.0 | 4.0 | 0.00 | 0.00 | 0.00 | 56 | |
| 20260505014110 | 50 | 352 | 1.0 | 2.0 | 0.00 | 0.00 | 0.00 | 55 | |
| 20260505013607 | 50 | 336 | 2.0 | 3.0 | 0.00 | 0.00 | 0.00 | 53 | |
| 20260505013104 | 50 | 94 | 2.0 | 3.0 | 0.00 | 0.00 | 0.00 | 53 | |
| 20260505012602 | 51 | 297 | 4.0 | 7.0 | 0.00 | 0.00 | 0.00 | 51 | |
| 20260505012059 | 51 | 78 | 2.0 | 2.0 | 0.00 | 0.00 | 0.00 | 47 | |
| 20260505011554 | 52 | 68 | 0.0 | 1.0 | 0.00 | 0.00 | 0.00 | 46 | |
| 20260505011052 | 52 | 107 | 2.0 | 2.0 | 0.00 | 0.00 | 0.00 | 46 | |
| 20260505010547 | 52 | 3 | 4.0 | 6.0 | 0.00 | 0.00 | 0.00 | 46 | |
| 20260505010044 | 52 | 92 | 0.0 | 1.0 | 0.00 | 0.00 | 0.00 | 47 | |
| 20260505005540 | 52 | 341 | 1.0 | 2.0 | 0.00 | 0.00 | 0.00 | 46 | |
| 20260505005038 | 52 | 328 | 6.0 | 8.0 | 0.00 | 0.00 | 0.00 | 45 | |
| 20260505004535 | 52 | 113 | 1.0 | 2.0 | 0.00 | 0.00 | 0.00 | 46 | |
| 20260505004032 | 52 | 85 | 0.0 | 2.0 | 0.00 | 0.00 | 0.00 | 47 | |
| 20260505003529 | 52 | 356 | 3.0 | 3.0 | 0.00 | 0.00 | 0.00 | 47 | |
| 20260505003026 | 52 | 316 | 2.0 | 3.0 | 0.00 | 0.00 | 0.00 | 47 | |
| 20260505002521 | 52 | 95 | 0.0 | 2.0 | 0.00 | 0.00 | 0.00 | 48 | |
| 20260505002020 | 52 | 132 | 3.0 | 7.0 | 0.00 | 0.00 | 0.00 | 47 | |
| 20260505001517 | 52 | 273 | 5.0 | 6.0 | 0.00 | 0.00 | 0.00 | 47 | |
| 20260505001014 | 52 | 112 | 0.0 | 3.0 | 0.00 | 0.00 | 0.00 | 47 | |
| 20260505000512 | 52 | 127 | 0.0 | 2.0 | 0.00 | 0.00 | 0.00 | 47 | |
| 20260505000009 | 52 | 2 | 4.0 | 7.0 | 0.00 | 0.00 | 0.00 | 48 | |
| 20260504235505 | 53 | 66 | 4.0 | 7.0 | 0.00 | 0.00 | 0.00 | 48 | |
| 20260504235002 | 53 | 94 | 1.0 | 3.0 | 0.00 | 0.00 | 0.00 | 48 | |
| 20260504234459 | 52 | 149 | 1.0 | 2.0 | 0.00 | 0.00 | 0.00 | 48 | |
| 20260504233956 | 51 | 83 | 2.0 | 8.0 | 0.00 | 0.00 | 0.00 | 52 | |
| 20260504233451 | 50 | 124 | 2.0 | 3.0 | 0.00 | 0.00 | 0.00 | 57 | |
| 20260504232949 | 50 | 98 | 3.0 | 6.0 | 0.00 | 0.00 | 0.00 | 59 | |
| 20260504232446 | 50 | 93 | 1.0 | 3.0 | 0.00 | 0.00 | 0.00 | 60 | |
| 20260504231943 | 50 | 97 | 1.0 | 4.0 | 0.00 | 0.00 | 0.00 | 60 | |
| 20260504231439 | 49 | 346 | 2.0 | 7.0 | 0.00 | 0.00 | 0.00 | 63 | |
| 20260504230935 | 48 | 79 | 1.0 | 4.0 | 0.00 | 0.00 | 0.00 | 64 | |
| 20260504230432 | 49 | 34 | 6.0 | 9.0 | 0.00 | 0.00 | 0.00 | 63 | |
| 20260504225932 | 51 | 72 | 4.0 | 9.0 | 0.00 | 0.00 | 0.00 | 61 | |
| 20260504225428 | 53 | 60 | 5.0 | 8.0 | 0.00 | 0.00 | 0.00 | 49 | |
| 20260504224925 | 55 | 135 | 4.0 | 13.0 | 0.00 | 0.00 | 0.00 | 44 | |
| 20260504224422 | 56 | 345 | 3.0 | 6.0 | 0.00 | 0.00 | 0.00 | 42 | |
| 20260504223919 | 57 | 93 | 1.0 | 2.0 | 0.00 | 0.00 | 0.00 | 41 | |
| 20260504223414 | 57 | 90 | 0.0 | 1.0 | 0.00 | 0.00 | 0.00 | 43 | |
| 20260504222910 | 56 | 102 | 0.0 | 1.0 | 0.00 | 0.00 | 0.00 | 47 | |
| 20260504222408 | 56 | 292 | 2.0 | 4.0 | 0.00 | 0.00 | 0.00 | 47 | |
| 20260504221906 | 55 | 51 | 1.0 | 3.0 | 0.00 | 0.00 | 0.00 | 47 | |
| 20260504221402 | 54 | 356 | 3.0 | 4.0 | 0.00 | 0.00 | 0.00 | 50 | |
| 20260504220859 | 54 | 99 | 0.0 | 1.0 | 0.00 | 0.00 | 0.00 | 50 | |
| 20260504220356 | 54 | 295 | 6.0 | 10.0 | 0.00 | 0.00 | 0.00 | 51 | |
| 20260504215853 | 54 | 148 | 2.0 | 8.0 | 0.00 | 0.00 | 0.00 | 50 | |
| 20260504215349 | 53 | 137 | 1.0 | 3.0 | 0.00 | 0.00 | 0.00 | 52 | |
| 20260504214846 | 52 | 333 | 6.0 | 9.0 | 0.00 | 0.00 | 0.00 | 52 | |
| 20260504214343 | 52 | 213 | 2.0 | 3.0 | 0.00 | 0.00 | 0.00 | 54 | |
| 20260504213839 | 52 | 109 | 3.0 | 7.0 | 0.00 | 0.00 | 0.00 | 53 | |
| 20260504213335 | 54 | 160 | 2.0 | 8.0 | 0.00 | 0.00 | 0.00 | 53 | |
| 20260504212833 | 57 | 110 | 1.0 | 8.0 | 0.00 | 0.00 | 0.00 | 45 | |
| 20260504212328 | 57 | 123 | 0.0 | 3.0 | 0.00 | 0.00 | 0.00 | 45 | |
| 20260504211827 | 57 | 111 | 1.0 | 3.0 | 0.00 | 0.00 | 0.00 | 45 | |
| 20260504211328 | 57 | 142 | 3.0 | 6.0 | 0.00 | 0.00 | 0.00 | 46 | |
| 20260504210825 | 55 | 23 | 3.0 | 4.0 | 0.00 | 0.00 | 0.00 | 48 | |
| 20260504210322 | 55 | 304 | 4.0 | 6.0 | 0.00 | 0.00 | 0.00 | 50 | |
| 20260504205820 | 56 | 62 | 0.0 | 3.0 | 0.00 | 0.00 | 0.00 | 51 | |
| 20260504205317 | 54 | 100 | 0.0 | 2.0 | 0.00 | 0.00 | 0.00 | 53 | |
| 20260504204815 | 53 | 107 | 0.0 | 3.0 | 0.00 | 0.00 | 0.00 | 55 | |
| 20260504204313 | 52 | 132 | 4.0 | 7.0 | 0.00 | 0.00 | 0.00 | 58 | |
| 20260504203812 | 51 | 108 | 1.0 | 4.0 | 0.00 | 0.00 | 0.00 | 56 | |
| 20260504203309 | 51 | 117 | 2.0 | 6.0 | 0.00 | 0.00 | 0.00 | 54 | |
| 20260504202804 | 51 | 102 | 2.0 | 9.0 | 0.00 | 0.00 | 0.00 | 58 | |
| 20260504202302 | 52 | 352 | 2.0 | 8.0 | 0.00 | 0.00 | 0.00 | 57 | |
| 20260504201758 | 52 | 243 | 2.0 | 8.0 | 0.00 | 0.00 | 0.00 | 52 | |
| 20260504201256 | 53 | 341 | 4.0 | 11.0 | 0.00 | 0.00 | 0.00 | 53 | |
| 20260504200754 | 56 | 83 | 4.0 | 9.0 | 0.00 | 0.00 | 0.00 | 44 | |
| 20260504200249 | 56 | 317 | 7.0 | 15.0 | 0.00 | 0.00 | 0.00 | 40 | |
| 20260504195746 | 60 | 333 | 3.0 | 14.0 | 0.00 | 0.00 | 0.00 | 34 | |
| 20260504195241 | 63 | 343 | 2.0 | 4.0 | 0.00 | 0.00 | 0.00 | 29 | |
| 20260504194739 | 62 | 11 | 1.0 | 2.0 | 0.00 | 0.00 | 0.00 | 31 | |
| 20260504194235 | 64 | 56 | 1.0 | 9.0 | 0.00 | 0.00 | 0.00 | 28 | |
| 20260504193731 | 63 | 131 | 2.0 | 7.0 | 0.00 | 0.00 | 0.00 | 31 | |
| 20260504193229 | 65 | 330 | 4.0 | 7.0 | 0.00 | 0.00 | 0.00 | 30 | |
| 20260504192727 | 66 | 163 | 4.0 | 4.0 | 0.00 | 0.00 | 0.00 | 29 | |
| 20260504192225 | 65 | 86 | 1.0 | 6.0 | 0.00 | 0.00 | 0.00 | 31 | |
| 20260504191723 | 65 | 112 | 3.0 | 8.0 | 0.00 | 0.00 | 0.00 | 30 | |
| 20260504191220 | 64 | 174 | 3.0 | 4.0 | 0.00 | 0.00 | 0.00 | 32 | |
| 20260504190715 | 64 | 107 | 2.0 | 9.0 | 0.00 | 0.00 | 0.00 | 33 | |
| 20260504190212 | 60 | 113 | 1.0 | 3.0 | 0.00 | 0.00 | 0.00 | 36 | |
| 20260504185708 | 58 | 216 | 1.0 | 7.0 | 0.00 | 0.00 | 0.00 | 39 | |
| 20260504185205 | 58 | 156 | 3.0 | 6.0 | 0.00 | 0.00 | 0.00 | 41 | |
| 20260504184701 | 57 | 109 | 1.0 | 3.0 | 0.00 | 0.00 | 0.00 | 44 | |
| 20260504184156 | 55 | 191 | 2.0 | 4.0 | 0.00 | 0.00 | 0.00 | 48 | |
| 20260504183653 | 51 | 114 | 2.0 | 4.0 | 0.00 | 0.00 | 0.00 | 55 | |
| 20260504183150 | 50 | 124 | 1.0 | 9.0 | 0.00 | 0.00 | 0.00 | 57 | |
| 20260504182648 | 50 | 143 | 4.0 | 8.0 | 0.00 | 0.00 | 0.00 | 56 | |
| 20260504182145 | 51 | 141 | 4.0 | 8.0 | 0.00 | 0.00 | 0.00 | 52 | |
| 20260504181643 | 53 | 113 | 1.0 | 10.0 | 0.00 | 0.00 | 0.00 | 47 | |
| 20260504181140 | 55 | 131 | 4.0 | 8.0 | 0.00 | 0.00 | 0.00 | 43 | |
| 20260504180640 | 57 | 119 | 3.0 | 7.0 | 0.00 | 0.00 | 0.00 | 38 | |
| 20260504180138 | 57 | 102 | 1.0 | 1.0 | 0.00 | 0.00 | 0.00 | 34 | |
| 20260504175635 | 58 | 331 | 2.0 | 2.0 | 0.00 | 0.00 | 0.00 | 33 | |
| 20260504175131 | 57 | 260 | 1.0 | 4.0 | 0.00 | 0.00 | 0.00 | 34 | |
| 20260504174630 | 57 | 84 | 4.0 | 7.0 | 0.00 | 0.00 | 0.00 | 34 | |
| 20260504174125 | 57 | 92 | 0.0 | 3.0 | 0.00 | 0.00 | 0.00 | 34 | |
| 20260504173623 | 58 | 91 | 2.0 | 3.0 | 0.00 | 0.00 | 0.00 | 35 | |
| 20260504173120 | 57 | 82 | 2.0 | 3.0 | 0.00 | 0.00 | 0.00 | 36 | |
| 20260504172617 | 57 | 32 | 2.0 | 8.0 | 0.00 | 0.00 | 0.00 | 35 | |
| 20260504172113 | 57 | 136 | 1.0 | 2.0 | 0.00 | 0.00 | 0.00 | 35 | |
| 20260504171609 | 57 | 347 | 2.0 | 6.0 | 0.00 | 0.00 | 0.00 | 34 | |
| 20260504171107 | 58 | 85 | 0.0 | 3.0 | 0.00 | 0.00 | 0.00 | 35 | |
| 20260504170602 | 58 | 26 | 1.0 | 2.0 | 0.00 | 0.00 | 0.00 | 36 | |
| 20260504150947 | 51 | 105 | 3.0 | 3.0 | 0.00 | 0.00 | 0.00 | 47 | |
| 20260504150443 | 51 | 73 | 1.0 | 3.0 | 0.00 | 0.00 | 0.00 | 48 | |
| 20260504140910 | 46 | 91 | 1.0 | 3.0 | 0.00 | 0.00 | 0.00 | 60 | |
| 20260504140405 | 47 | 310 | 5.0 | 7.0 | 0.00 | 0.00 | 0.00 | 56 | |
| 20260504130331 | 42 | 159 | 1.0 | 3.0 | 0.00 | 0.00 | 0.00 | 53 | |
| 20260504120254 | 38 | 79 | 0.0 | 0.0 | 0.00 | 0.00 | 0.00 | 60 | |
| 20260504110218 | 36 | 93 | 0.0 | 2.0 | 0.00 | 0.00 | 0.00 | 68 | |
| 20260504100136 | 36 | 92 | 0.0 | 0.0 | 0.00 | 0.00 | 0.00 | 70 | |
| 20260504081529 | 37 | 100 | 0.0 | 0.0 | 0.00 | 0.00 | 0.00 | 63 | |
| 20260504081025 | 37 | 106 | 0.0 | 0.0 | 0.00 | 0.00 | 0.00 | 63 | |
| 20260504080522 | 36 | 90 | 0.0 | 1.0 | 0.00 | 0.00 | 0.00 | 65 |